This is the latest recevied weather packets stored in our database for station/object KF8LO-1. If no packets are shown the sender has not sent any weather packets the latest 1 day(s).
| Time | Temp. | Humidity | Pressure | Rain* | Wind** | Luminosity | Snow |
|---|---|---|---|---|---|---|---|
| 1778069102 | 13.33° C | 85% | 0 hPa | 4.32 mm | 2.24 m/s, 286° | - | - |
| 1778068802 | 13.33° C | 85% | 0 hPa | 4.06 mm | 3.58 m/s, 286° | - | - |
| 1778068502 | 13.33° C | 84% | 0 hPa | 3.81 mm | 8.05 m/s, 271° | - | - |
| 1778068202 | 13.33° C | 84% | 0 hPa | 3.81 mm | 3.58 m/s, 15° | - | - |
| 1778067902 | 13.33° C | 84% | 0 hPa | 3.56 mm | 4.02 m/s, 243° | - | - |
| 1778067615 | 13.33° C | 83% | 0 hPa | 2.79 mm | 4.92 m/s, 285° | - | - |
| 1778067302 | 13.33° C | 81% | 0 hPa | 2.29 mm | 4.02 m/s, 195° | - | - |
| 1778067002 | 13.33° C | 80% | 0 hPa | 2.54 mm | 4.02 m/s, 281° | - | - |
| 1778066702 | 13.33° C | 81% | 0 hPa | 2.79 mm | 4.02 m/s, 244° | - | - |
| 1778066402 | 13.33° C | 80% | 0 hPa | 2.79 mm | 4.92 m/s, 246° | - | - |
| 1778066102 | 13.33° C | 80% | 0 hPa | 2.54 mm | 4.92 m/s, 260° | - | - |
| 1778065802 | 13.33° C | 79% | 0 hPa | 2.29 mm | 3.13 m/s, 261° | - | - |
| 1778065502 | 13.33° C | 79% | 0 hPa | 2.54 mm | 5.81 m/s, 239° | - | - |
| 1778065202 | 13.33° C | 79% | 0 hPa | 3.05 mm | 4.47 m/s, 262° | - | - |
| 1778064902 | 13.33° C | 79% | 0 hPa | 3.56 mm | 2.24 m/s, 302° | - | - |
| 1778064602 | 13.33° C | 79% | 0 hPa | 4.06 mm | 3.13 m/s, 274° | - | - |
| 1778064302 | 13.33° C | 80% | 0 hPa | 4.57 mm | 4.92 m/s, 250° | - | - |
| 1778064002 | 13.33° C | 80% | 0 hPa | 4.57 mm | 4.92 m/s, 250° | - | - |
| 1778063702 | 13.33° C | 79% | 0 hPa | 4.32 mm | 4.92 m/s, 278° | - | - |
| 1778063402 | 13.33° C | 78% | 0 hPa | 4.32 mm | 4.47 m/s, 286° | - | - |
| 1778063103 | 13.33° C | 78% | 0 hPa | 3.81 mm | 4.92 m/s, 236° | - | - |
| 1778062802 | 13.33° C | 77% | 0 hPa | 3.81 mm | 4.02 m/s, 251° | - | - |
| 1778062502 | 13.33° C | 77% | 0 hPa | 3.81 mm | 4.92 m/s, 225° | - | - |
| 1778062202 | 13.33° C | 76% | 0 hPa | 3.81 mm | 3.13 m/s, 251° | - | - |
| 1778061903 | 13.33° C | 76% | 0 hPa | 3.81 mm | 5.36 m/s, 233° | - | - |
* Rain latest hour (hover to see other rain measurements)
** Current wind speed in m/s (hover to see current wind gust speed)